Probability
18 22 26 32 39 45 47 45 40 33 28 25 22 20 17 15 15 15 15 18 21 23 24 26 28 28 26 22 18 15 11 9 11 12 11 9 7 4 5 9 11 8 6
21 21 22 25 30 36 38 36 30 25 22 20 16 14 12 11 11 10 12 15 18 19 19 22 25 24 21 17 13 10 9 8 10 11 10 8 6 4 4 7 8 7 6
16 15 14 14 17 21 23 22 19 15 14 12 8 6 6 7 6 6 8 11 14 14 13 15 18 17 14 12 10 7 7 8 9 10 9 7 4 4 4 5 6 6 6
7 6 6 6 7 9 10 10 10 9 7 5 4 3 2 3 3 3 4 6 9 10 9 9 12 13 12 11 10 9 11 11 12 14 13 9 6 5 5 4 4 4 4
1 1 1 1 2 2 2 3 4 4 2 1 1 1 1 1 1 1 1 3 4 5 4 6 9 12 12 12 12 12 16 18 20 21 20 17 12 7 5 4 3 2 2
0 0 0 0 0 0 0 1 2 1 0 0 0 0 0 1 1 1 0 1 1 1 1 2 5 8 10 12 15 18 22 25 28 29 27 24 17 11 8 8 6 4 3
0 1 1 0 0 0 0 0 1 1 0 0 0 0 1 2 2 1 0 0 0 0 0 0 1 3 6 9 16 22 26 29 31 31 31 28 22 17 14 13 10 8 7
1 2 2 1 0 0 0 0 1 1 1 0 0 0 1 1 1 0 0 1 0 0 0 0 0 0 2 5 10 18 23 27 31 31 32 31 26 23 21 19 15 12 10
1 2 3 2 1 0 0 0 1 2 2 1 0 0 0 0 0 0 0 0 0 0 0 0 0 0 0 2 5 9 15 22 28 31 32 31 30 29 27 25 23 18 14
0 1 2 3 2 1 0 0 1 2 3 1 0 0 0 0 0 0 0 0 0 0 0 0 0 0 1 2 3 5 8 14 21 26 29 31 33 33 30 28 27 23 20
0 0 1 2 2 1 0 0 0 1 1 0 0 0 0 0 0 0 0 0 0 0 0 0 0 0 1 2 2 3 4 6 10 15 19 25 30 31 30 27 25 24 23
0 0 0 1 1 0 0 0 0 0 0 0 0 0 0 0 0 0 1 2 2 1 0 0 0 0 0 1 1 1 1 1 2 5 9 13 19 24 27 26 23 20 19
0 0 0 0 0 0 0 0 0 0 0 0 0 0 0 0 0 0 1 2 3 2 1 1 0 0 0 0 0 0 0 0 0 1 2 5 8 14 21 24 22 17 14
0 0 0 0 0 0 0 0 0 0 0 0 0 0 0 0 0 1 1 2 3 3 3 2 1 0 0 0 0 0 0 0 0 0 0 1 3 6 11 17 19 17 15
0 0 0 0 0 0 0 0 0 0 0 0 0 0 0 0 0 1 2 1 2 2 3 3 1 0 0 0 1 0 0 0 0 0 0 0 0 1 2 7 12 14 14
0 0 0 0 0 0 0 0 0 0 0 0 0 0 0 0 0 1 1 1 1 2 2 1 0 0 0 0 0 0 0 0 0 0 0 0 0 0 0 1 4 6 8
0 0 0 0 0 0 0 0 0 0 0 0 0 0 0 0 0 0 0 0 0 1 1 0 0 0 0 0 0 0 0 0 0 0 0 0 0 0 0 0 0 1 2
0 0 0 0 0 0 0 0 0 0 0 0 0 0 0 0 0 0 1 2 2 1 1 0 0 0 0 0 0 0 0 0 0 0 0 0 0 0 0 0 0 0 0
0 0 0 0 0 0 0 0 0 0 0 0 0 0 0 0 0 0 1 2 3 2 1 0 0 0 0 0 0 0 0 0 0 0 0 0 0 0 0 0 0 0 0
0 0 0 0 0 0 0 0 0 0 0 0 0 0 0 0 0 0 0 1 2 1 1 0 0 0 0 0 0 0 0 0 0 0 0 0 0 0 0 0 0 0 0
0 0 0 0 0 0 0 0 0 0 0 0 0 0 0 0 0 0 0 0 0 0 0 0 0 0 0 0 0 0 0 0 0 0 0 0 0 0 0 0 0 0 0
0 0 0 0 0 0 0 0 0 0 0 0 0 0 0 0 0 0 0 0 0 0 0 0 0 0 0 0 0 0 0 0 0 0 0 0 0 0 0 0 0 0 0
0 0 0 0 0 0 0 0 0 0 0 0 0 0 0 0 0 0 0 0 0 0 0 0 0 0 0 0 0 0 0 0 0 0 0 0 0 0 0 0 0 0 0
0 0 0 0 0 0 0 0 0 0 0 0 0 0 0 0 0 0 0 0 0 0 0 0 0 0 0 0 0 0 0 0 0 0 0 0 0 0 0 0 0 0 0
0 0 0 0 0 0 0 0 0 0 0 0 0 0 0 0 0 0 0 0 0 0 0 0 0 0 0 0 0 0 0 0 0 0 0 0 0 0 0 0 0 0 0
0 0 0 0 0 0 0 0 0 0 0 0 0 0 0 0 0 0 0 0 0 0 0 0 0 0 0 0 0 0 0 0 0 0 0 0 0 0 0 0 0 0 0
Wind_Speed
9 9 9 8 7 6 4 3 3 3 1 1 2 2 2 2 3 3 4 6 6 6 6 5 5 6 6 6 7 7 8 7 5 6 6 7 8 7 6 7 7 8 8
8 8 8 7 7 6 5 4 3 2 1 1 1 2 3 3 2 2 3 4 5 5 5 5 5 6 5 7 7 7 7 6 5 6 5 5 6 6 6 5 6 6 6
6 6 6 6 6 6 5 4 4 2 2 2 0 1 1 2 2 3 3 4 5 5 4 4 5 5 7 6 8 8 10 7 6 7 6 5 4 3 5 5 5 5 5
5 5 5 5 5 4 3 3 2 2 2 1 1 1 2 2 2 2 2 3 3 4 4 5 5 5 6 6 8 9 8 9 8 6 6 6 4 5 4 6 6 6 6
4 3 3 3 3 2 1 1 1 2 2 3 2 3 3 2 2 2 2 3 3 3 4 4 4 5 6 6 7 7 9 8 8 7 6 7 6 8 7 5 5 6 6
2 2 2 2 2 2 2 2 2 2 3 3 3 4 4 4 4 4 4 4 3 3 3 4 4 5 5 6 7 7 9 8 8 7 7 7 7 8 8 8 7 6 5
1 2 3 3 4 4 4 4 4 5 5 5 6 6 6 6 6 7 5 6 5 4 3 4 4 5 5 6 7 7 8 9 9 9 8 8 8 7 7 7 7 6 5
3 4 6 6 6 6 6 6 6 7 7 7 7 7 8 8 7 7 8 7 7 6 5 6 6 7 6 7 6 7 8 8 9 10 9 7 8 7 7 7 7 7 7
6 7 8 9 8 8 8 9 9 9 9 10 9 9 10 10 10 10 10 9 7 8 8 8 8 8 8 8 7 7 8 8 9 10 11 10 8 7 7 7 8 8 8
9 9 9 9 9 9 10 10 10 11 11 12 11 11 11 11 11 11 12 11 11 10 10 11 10 10 10 9 9 9 8 8 9 8 10 10 9 7 8 8 8 8 8
11 11 10 10 11 11 12 11 12 12 12 12 12 13 13 13 13 12 13 12 12 12 12 12 12 12 12 11 10 10 9 10 9 9 10 10 10 8 8 8 8 8 8
13 13 13 12 12 13 13 14 13 14 14 14 14 14 14 14 15 15 14 14 14 13 14 13 13 13 13 12 12 12 11 10 10 9 9 9 8 10 9 7 9 8 8
13 13 13 13 13 14 14 15 15 15 15 15 16 15 15 15 15 15 15 14 14 14 14 14 14 14 13 13 13 12 12 11 10 10 9 10 9 10 8 9 9 8 8
14 14 14 14 14 15 15 16 16 16 16 16 17 17 16 16 16 15 15 15 15 15 15 14 14 14 14 14 13 12 12 11 11 10 10 10 10 10 10 9 10 9 9
15 16 16 15 16 16 16 16 16 16 16 17 17 17 17 16 16 16 15 15 15 16 15 15 15 15 13 13 13 12 12 12 12 11 11 11 10 9 8 8 9 9 9
17 17 17 17 17 17 17 17 17 16 17 17 18 17 17 17 16 16 16 16 15 15 15 15 14 15 13 10 9 11 12 12 12 12 12 11 11 12 12 11 11 11 11
18 18 18 17 17 17 17 17 17 17 17 17 17 17 17 16 16 16 16 15 15 14 14 14 14 14 13 9 9 11 12 13 12 12 11 11 10 10 11 12 14 15 15
18 18 17 18 17 17 17 17 17 17 17 17 17 17 16 16 16 15 16 15 14 13 13 13 14 13 13 11 11 11 13 14 13 13 13 13 12 10 10 10 11 12 13
17 16 17 18 17 17 17 17 17 17 17 17 16 16 16 16 16 15 15 14 12 12 12 12 12 13 12 11 12 12 11 12 14 14 14 13 13 10 9 11 12 12 11
15 16 17 17 17 16 16 17 17 17 16 17 17 16 15 15 15 15 14 13 11 11 11 11 11 12 12 10 12 14 11 12 11 11 12 13 13 8 9 12 13 12 11
17 16 16 15 15 16 16 17 17 17 16 16 16 16 15 15 14 13 12 12 11 10 10 10 10 10 10 10 12 14 10 11 10 10 10 9 13 12 11 11 12 10 8
17 17 15 15 15 15 15 16 16 16 16 16 16 15 15 13 12 12 11 10 10 9 8 8 9 8 8 9 10 14 14 11 10 9 9 5 10 11 11 11 9 6 6
16 15 16 16 15 15 15 16 16 16 16 16 16 15 14 12 10 10 10 9 8 7 6 6 6 6 6 6 9 12 13 13 10 8 4 1 6 8 10 12 10 9 9
15 15 16 16 16 16 16 15 15 14 15 15 15 12 11 10 9 7 7 6 6 6 6 6 5 5 5 5 5 7 9 12 11 10 7 8 7 8 6 7 10 10 9
14 14 15 15 16 16 16 15 14 14 14 14 13 12 10 10 9 7 5 6 5 5 6 5 4 4 4 1 1 3 4 5 6 6 6 7 7 8 8 8 8 8 8
14 14 15 16 16 16 16 15 14 13 13 12 11 9 9 8 7 6 5 3 4 4 4 5 5 4 2 1 1 2 1 1 2 4 6 7 8 8 8 8 8 8 8
Wind_Direction
63 58 58 61 64 63 66 64 61 62 64 39 325 307 314 307 296 282 279 271 270 258 242 243 231 239 238 240 240 242 238 241 243 249 246 236 234 238 239 238 245 233 232
70 65 63 64 63 61 54 53 53 72 40 52 326 295 311 301 286 305 320 304 287 267 241 233 239 236 239 237 234 234 246 237 224 245 253 242 209 209 223 221 224 234 227
65 66 63 61 61 59 53 48 42 41 32 22 24 288 267 282 323 342 335 322 307 299 286 259 253 252 247 234 230 226 233 241 229 231 249 255 247 208 189 213 216 218 229
69 66 66 63 62 57 47 39 32 31 18 343 356 347 328 329 337 313 323 322 314 317 308 288 270 258 254 244 235 228 231 237 236 219 232 257 297 267 215 197 196 205 220
62 62 56 54 49 43 31 11 2 351 337 321 309 293 305 312 308 298 295 288 292 293 294 290 285 271 264 259 253 245 240 235 241 235 220 217 221 240 260 235 206 208 214
59 42 19 1 342 323 310 306 308 302 299 293 293 289 296 296 296 289 289 281 276 269 279 284 284 275 273 267 259 254 244 244 244 248 240 227 222 222 230 239 231 227 220
355 338 327 324 318 313 314 308 304 297 295 290 287 284 281 278 272 277 277 280 283 277 270 281 279 280 279 274 268 258 258 249 241 239 241 240 241 239 238 243 241 237 227
325 322 316 313 309 308 304 300 296 289 289 287 284 281 278 277 282 279 285 282 281 281 279 268 266 266 266 266 266 265 256 250 245 240 241 243 242 240 237 240 243 236 229
319 315 314 314 312 310 308 306 302 294 288 285 283 277 275 278 283 281 269 271 270 271 264 263 263 263 261 260 258 258 258 256 248 244 234 235 237 235 237 237 240 244 243
317 318 316 315 312 308 307 307 302 296 291 287 283 282 279 275 273 273 275 275 274 270 267 264 263 261 259 257 256 258 250 252 254 252 249 241 238 231 230 231 234 237 248
322 320 318 316 311 309 308 307 303 300 297 293 290 287 283 280 276 270 268 268 266 266 261 257 257 257 257 255 252 255 255 249 250 252 250 246 244 239 235 229 229 230 236
325 324 323 320 316 313 312 310 307 303 300 299 295 290 287 284 280 275 271 269 266 263 260 257 255 253 253 252 251 251 251 248 247 247 248 250 247 240 239 236 232 230 231
325 323 323 320 317 316 315 312 309 306 305 304 300 296 292 288 284 281 278 273 270 265 262 258 254 252 253 252 249 249 251 248 246 245 243 242 241 243 241 237 235 233 228
325 322 321 317 318 316 315 314 311 310 308 305 301 299 296 292 287 284 281 276 271 267 263 258 253 251 250 249 247 244 244 247 246 242 242 243 238 236 238 241 239 237 237
324 324 322 320 318 316 315 313 311 310 307 303 299 297 295 292 289 285 282 279 275 270 265 261 256 251 248 243 242 242 242 243 245 242 239 238 237 241 239 245 242 236 234
325 325 323 321 320 318 315 314 311 309 306 302 300 298 296 293 290 286 283 279 274 272 269 263 259 254 250 236 220 237 249 246 243 242 240 239 226 226 222 233 247 251 244
324 323 323 320 319 317 316 313 311 309 305 302 300 299 297 295 291 289 286 283 279 274 268 263 257 255 252 234 212 222 245 249 245 243 241 242 236 222 230 223 225 236 241
323 323 321 319 318 318 316 314 311 309 307 304 302 301 299 296 293 289 285 282 279 275 271 265 258 254 249 221 212 216 237 246 245 243 240 240 245 237 235 240 236 235 229
322 321 320 319 319 318 318 316 312 310 308 307 306 304 302 298 295 290 287 285 282 276 270 264 257 252 249 223 207 211 237 238 240 240 239 239 239 230 212 236 243 242 239
323 321 320 320 319 320 320 315 312 312 312 311 308 306 302 299 295 292 289 287 283 276 272 265 257 250 247 229 206 207 234 238 238 234 237 233 236 228 197 231 239 239 236
323 322 322 320 320 320 320 315 314 313 314 313 308 305 303 299 295 292 291 289 285 278 269 265 260 251 245 230 205 204 232 238 236 237 234 229 197 204 206 228 243 242 241
325 326 323 320 320 322 321 316 315 316 316 313 310 308 306 302 301 298 293 290 285 280 271 264 260 252 242 235 211 199 218 243 242 242 242 224 167 184 200 218 233 225 227
327 326 323 320 322 325 323 317 316 317 315 313 312 311 310 308 304 300 299 297 288 279 275 264 257 254 246 222 200 200 211 222 237 245 247 168 162 185 206 220 217 213 221
327 326 323 323 324 325 323 319 317 319 316 315 314 315 313 311 310 306 304 299 294 288 282 274 271 264 255 239 209 204 204 208 220 232 206 187 194 223 237 201 202 216 221
326 325 324 323 323 324 321 321 324 322 317 316 316 315 312 312 309 308 307 304 305 303 293 291 287 279 267 279 323 247 223 214 210 213 217 214 203 209 213 214 210 208 207
325 325 326 325 323 322 321 324 326 323 318 317 316 316 316 316 315 314 312 277 273 287 279 280 288 286 278 274 228 227 242 197 186 220 223 220 216 215 213 210 205 204 206